Regional Weather Roundup
Issued by NWS

Home | Current Version | Previous Version | Graphics & Text | Print | Product List | Glossary On
Versions: 1 2 3 4 5 6 7 8 9 10 11 12 13 14 15 16 17 18 19 20 21 22 23 24 25 26 27 28 29 30 31 32 33 34 35 36 37 38 39 40 41 42 43 44 45 46 47 48 49 50
000
ASUS43 KIND 200709
RWRIN

WEATHER ROUNDUP FOR INDIANA
NATIONAL WEATHER SERVICE INDIANAPOLIS IN
200 AM EST TUE FEB 20 2018

NOTE: "FAIR" INDICATES FEW OR NO CLOUDS BELOW 12,000 FEET WITH NO
SIGNIFICANT WEATHER AND/OR OBSTRUCTIONS TO VISIBILITY.

* - STATION DOES NOT REPORT WEATHER SUCH AS PRECIPITATION OR FOG.

+ - STATION NOT QUALITY CONTROLLED BY THE NATIONAL WEATHER SERVICE.
    USE DATA WITH CAUTION...ESPECIALLY DEWPOINT AND RELATIVE
    HUMIDITY OBSERVATIONS.

INZ001>003-010>013-019-020-200800-
NORTHWEST INDIANA

CITY           SKY/WX    TMP DP  RH WIND       PRES   REMARKS
GARY /AIRPORT/ RAIN      60  60 100 S7        29.86F
LA PORTE +     RAIN      58  56  95 SW12      29.90S
MICHIGAN CITY+ RAIN      57  57 100 SW5       29.89F
MONTICELLO +   CLOUDY    61  58  88 SW17G25   29.92S
RENSSELAER +   CLOUDY    61  54  77 S23G32    29.89S
VALPARAISO     LGT RAIN  62  58  86 SW16G26   29.89S FOG

$$

LMZ046-743>745-200800-
SOUTHERN LAKE MICHIGAN

STATION/POSITION TIME  TEMP    WIND        PRES    WAVE
                       AIR SEA DIR/SP/G            HT
                 (UTC) (F)     (DEG/KT/KT) (MB)    (FT)
BURNS HARBOR     0703   58     210/ 14/ 19 1011.9
MICHIGAN CITY    0640   58     160/  9/ 10   N/A

$$

INZ004-005-014>016-021>024-200800-
NORTH CENTRAL INDIANA

CITY           SKY/WX    TMP DP  RH WIND       PRES   REMARKS
GOSHEN         RAIN      58  55  90 S10       29.92S FOG
LOGANSPORT +   CLOUDY    61  55  82 SW20G26   29.95R
PERU/GRISSOM   CLOUDY    62  62 100 S18G28    29.94R
ROCHESTER +    CLOUDY    63  55  77 SW13G21   29.93R
SOUTH BEND     RAIN      57  56  96 S9        29.91S FOG
WARSAW +       CLOUDY    61  54  77 S8G18     29.93R

$$

INZ006>009-017-018-025>027-200800-
NORTHEAST INDIANA

CITY           SKY/WX    TMP DP  RH WIND       PRES   REMARKS
AUBURN +       CLOUDY    61  54  77 S13G20    29.95S
FORT WAYNE     CLOUDY    61  55  81 S21       29.95S
HUNTINGTON +   CLOUDY    60  55  82 S12G22    29.96R
KENDALLVILLE + CLOUDY    59  54  84 SW12      29.94R

$$

INZ028-029-035-036-043>045-051>053-200800-
WEST CENTRAL INDIANA

CITY           SKY/WX    TMP DP  RH WIND       PRES   REMARKS
CRAWFORDSVL +  MOCLDY    60  58  91 S16G23    29.96S
GREENCASTLE +  FAIR      63  55  77 S12G26    29.98F
LAFAYETTE      LGT RAIN  62  57  83 S12G20    29.94R
TERRE HAUTE    MOCLDY    64  57  78 S18G25    29.97S

$$

INZ030>032-037>040-046>048-054>057-064-065-200800-
CENTRAL INDIANA

CITY           SKY/WX    TMP DP  RH WIND       PRES   REMARKS
FISHERS *+       N/A     61  57  88 S12G18    29.99
FRANKFORT +    FAIR      64  58  81 SW18G26   29.96S
GREENWOOD *+   FAIR      60 -47   1 S13G18    30.03S
INDIANAPOLIS   MOCLDY    64  56  75 S17       29.99F
-EAGLE CREEK   MOCLDY    65  56  72 S10       29.98S
KOKOMO +       CLOUDY    62  56  80 S18G26    29.97R
MARION +       MOCLDY    59  54  82 S20G25    29.98R
MT COMFORT *+  FAIR      59  57  94 S9        30.02R
SHELBYVILLE    FAIR      63  54  72 S18       30.03S
ZIONSVILLE +   MOCLDY    62  56  82 S17G24    29.99R

$$

INZ033-034-041-042-049-050-058-059-200800-
EAST CENTRAL INDIANA

CITY           SKY/WX    TMP DP  RH WIND       PRES   REMARKS
MUNCIE         FAIR      64  55  72 S15G26    30.00R
RICHMOND +     FAIR      55  54  94 S16       30.07S

$$

INZ060-061-067>069-081>083-085>088-200800-
SOUTHWEST INDIANA

CITY           SKY/WX    TMP DP  RH WIND       PRES   REMARKS
EVANSVILLE     FAIR      66  59  78 S13G22    30.05R
HUNTINGBURG +  FAIR      65  58  78 S16G22    30.06R
WASHINGTON +   FAIR      63  55  74 S13       30.03S

$$

INZ062-063-066-070>080-084-089>092-200800-
SOUTH CENTRAL AND SOUTHEAST INDIANA

CITY           SKY/WX    TMP DP  RH WIND       PRES   REMARKS
BATESVILLE +   PTCLDY    61  55  82 MISG      30.07S
BEDFORD +      FAIR      66  55  68 S12       30.05S
BLOOMINGTON    CLOUDY    67  57  70 S17G28    30.03S
FRENCH LICK *+ FAIR      64  52  63 S10G20    30.07S
MADISON *+     FAIR      61  54  77 S9        30.12R
NORTH VERNON + FAIR      61  54  77 S13       30.08S
SEYMOUR +      FAIR      64  54  68 S13       30.06S

$$





USA.gov is the U.S. government's official web portal to all federal, state and local government web resources and services.